{"data":{"norad_id":42969,"intl_designator":"2017-064A","name":"SENTINEL-5P","alt_names":[],"object_type":"PAYLOAD","status":"ACTIVE","operator":null,"country":"ESA","launch_date":"2017-10-13","launch_site_code":"PLMSC","launch_vehicle":null,"mission":null,"orbit_class":"UNKNOWN","rcs_meters":null,"size_class":null,"mass_kg":null,"dimensions":null,"purposes":["earth_obs"],"wikipedia_slug":null,"has_3d_model":false,"image_url":null,"decayed_at":null,"tle_current":{"epoch":"2026-09-19T05:30:50.543424Z","epoch_age_seconds":127997,"freshness":"FRESH","line1":"1 42969U 17064A   26262.22975166  .00000034  00000+0  37207-4 0  9993","line2":"2 42969  98.7988 203.7133 0001145  76.1378 283.9925 14.19532043462904","mean_motion":14.19532043,"eccentricity":0.0001145,"inclination_deg":98.7988,"raan_deg":203.7133,"arg_perigee_deg":76.1378,"mean_anomaly_deg":283.9925,"bstar":3.7207e-5,"rev_number":46290,"period_min":101.44188059022,"perigee_km":826.1108389791,"apogee_km":827.76080065484,"semimajor_km":7205.072819817,"source":"CELESTRAK","updated_at":"2026-09-20T09:00:33.970392Z"}}}